owner,sensor,date,latitude,longitude,vertical_datum,mass_concentration_of_oxygen_in_sea_water,qcFlag 
DISL,ioos:station:DISL:DISL:1,2008-03-01T00:00:00Z,30.2513,-88.0778,6.694,8.99,1111122 
DISL,ioos:station:DISL:DISL:1,2008-03-01T00:30:00Z,30.2513,-88.0778,6.596,8.87,1111122 
DISL,ioos:station:DISL:DISL:1,2008-03-01T01:00:00Z,30.2513,-88.0778,6.575,9.0,1111122 
DISL,ioos:station:DISL:DISL:1,2008-03-01T01:30:00Z,30.2513,-88.0778,6.531,8.88,1111122 
DISL,ioos:station:DISL:DISL:1,2008-03-01T02:00:00Z,30.2513,-88.0778,6.411,8.77,1111122 
DISL,ioos:station:DISL:DISL:1,2008-03-01T02:30:00Z,30.2513,-88.0778,6.368,8.6,1111122 
DISL,ioos:station:DISL:DISL:1,2008-03-01T03:00:00Z,30.2513,-88.0778,6.249,8.49,1111122 
DISL,ioos:station:DISL:DISL:1,2008-03-01T03:30:00Z,30.2513,-88.0778,6.191,8.44,1111122 
DISL,ioos:station:DISL:DISL:1,2008-03-01T04:00:00Z,30.2513,-88.0778,6.113,8.22,1111122 
DISL,ioos:station:DISL:DISL:1,2008-03-01T04:30:00Z,30.2513,-88.0778,5.99,8.33,1111122 
DISL,ioos:station:DISL:DISL:1,2008-03-01T05:00:00Z,30.2513,-88.0778,5.886,8.37,1111122 
DISL,ioos:station:DISL:DISL:1,2008-03-01T05:30:00Z,30.2513,-88.0778,5.778,8.32,1111122 
DISL,ioos:station:DISL:DISL:1,2008-03-01T06:00:00Z,30.2513,-88.0778,5.685,8.16,1111122 
DISL,ioos:station:DISL:DISL:1,2008-03-01T06:30:00Z,30.2513,-88.0778,5.617,8.02,1111122 
DISL,ioos:station:DISL:DISL:1,2008-03-01T07:00:00Z,30.2513,-88.0778,5.588,8.21,1111122 
DISL,ioos:station:DISL:DISL:1,2008-03-01T07:30:00Z,30.2513,-88.0778,5.511,8.39,1111122 
DISL,ioos:station:DISL:DISL:1,2008-03-01T08:00:00Z,30.2513,-88.0778,5.448,8.65,1111122 
DISL,ioos:station:DISL:DISL:1,2008-03-01T08:30:00Z,30.2513,-88.0778,5.369,8.72,1111122 
DISL,ioos:station:DISL:DISL:1,2008-03-01T09:00:00Z,30.2513,-88.0778,5.278,8.7,1111122 
DISL,ioos:station:DISL:DISL:1,2008-03-01T09:30:00Z,30.2513,-88.0778,5.209,8.69,1111122 
DISL,ioos:station:DISL:DISL:1,2008-03-01T10:00:00Z,30.2513,-88.0778,5.151,8.67,1111122 
DISL,ioos:station:DISL:DISL:1,2008-03-01T10:30:00Z,30.2513,-88.0778,5.141,8.67,1111122 
DISL,ioos:station:DISL:DISL:1,2008-03-01T11:00:00Z,30.2513,-88.0778,5.11,8.73,1111122 
DISL,ioos:station:DISL:DISL:1,2008-03-01T11:30:00Z,30.2513,-88.0778,5.092,8.71,1111122 
DISL,ioos:station:DISL:DISL:1,2008-03-01T12:00:00Z,30.2513,-88.0778,4.341,8.7,1111122 
DISL,ioos:station:DISL:DISL:1,2008-03-01T12:30:00Z,30.2513,-88.0778,5.144,8.69,1111122 
DISL,ioos:station:DISL:DISL:1,2008-03-01T13:00:00Z,30.2513,-88.0778,5.196,8.61,1111122 
DISL,ioos:station:DISL:DISL:1,2008-03-01T13:30:00Z,30.2513,-88.0778,5.223,8.56,1111122 
DISL,ioos:station:DISL:DISL:1,2008-03-01T14:00:00Z,30.2513,-88.0778,5.23,8.06,1111122 
DISL,ioos:station:DISL:DISL:1,2008-03-01T14:30:00Z,30.2513,-88.0778,5.322,7.78,1111122 
DISL,ioos:station:DISL:DISL:1,2008-03-01T15:00:00Z,30.2513,-88.0778,5.368,7.63,1111122 
DISL,ioos:station:DISL:DISL:1,2008-03-01T15:30:00Z,30.2513,-88.0778,5.393,7.77,1111122 
DISL,ioos:station:DISL:DISL:1,2008-03-01T16:00:00Z,30.2513,-88.0778,5.501,7.86,1111122 
DISL,ioos:station:DISL:DISL:1,2008-03-01T16:30:00Z,30.2513,-88.0778,5.573,8.34,1111122 
DISL,ioos:station:DISL:DISL:1,2008-03-01T17:00:00Z,30.2513,-88.0778,5.66,8.5,1111122 
DISL,ioos:station:DISL:DISL:1,2008-03-01T17:30:00Z,30.2513,-88.0778,5.693,8.19,1111122 
DISL,ioos:station:DISL:DISL:1,2008-03-01T18:00:00Z,30.2513,-88.0778,5.804,8.26,1111122 
DISL,ioos:station:DISL:DISL:1,2008-03-01T18:30:00Z,30.2513,-88.0778,5.85,7.58,1111122 
DISL,ioos:station:DISL:DISL:1,2008-03-01T19:00:00Z,30.2513,-88.0778,5.98,7.81,1111122 
DISL,ioos:station:DISL:DISL:1,2008-03-01T19:30:00Z,30.2513,-88.0778,6.098,7.57,1111122 
DISL,ioos:station:DISL:DISL:1,2008-03-01T20:00:00Z,30.2513,-88.0778,6.172,7.51,1111122 
DISL,ioos:station:DISL:DISL:1,2008-03-01T20:30:00Z,30.2513,-88.0778,6.276,7.6,1111122 
DISL,ioos:station:DISL:DISL:1,2008-03-01T21:00:00Z,30.2513,-88.0778,6.323,7.52,1111122 
DISL,ioos:station:DISL:DISL:1,2008-03-01T21:30:00Z,30.2513,-88.0778,6.397,7.76,1111122 
DISL,ioos:station:DISL:DISL:1,2008-03-01T22:00:00Z,30.2513,-88.0778,6.409,7.8,1111122 
DISL,ioos:station:DISL:DISL:1,2008-03-01T22:30:00Z,30.2513,-88.0778,6.409,7.55,1111122 
DISL,ioos:station:DISL:DISL:1,2008-03-01T23:00:00Z,30.2513,-88.0778,6.469,7.72,1111122 
DISL,ioos:station:DISL:DISL:1,2008-03-01T23:30:00Z,30.2513,-88.0778,6.469,8.07,1111122 
DISL,ioos:station:DISL:DISL:1,2008-03-02T00:00:00Z,30.2513,-88.0778,6.507,9.27,1111122 
DISL,ioos:station:DISL:DISL:1,2008-03-02T00:30:00Z,30.2513,-88.0778,6.468,9.31,1111122 
DISL,ioos:station:DISL:DISL:1,2008-03-02T01:00:00Z,30.2513,-88.0778,6.434,9.23,1111122 
DISL,ioos:station:DISL:DISL:1,2008-03-02T01:30:00Z,30.2513,-88.0778,6.357,9.26,1111122 
DISL,ioos:station:DISL:DISL:1,2008-03-02T02:00:00Z,30.2513,-88.0778,6.296,9.2,1111122 
DISL,ioos:station:DISL:DISL:1,2008-03-02T02:30:00Z,30.2513,-88.0778,6.261,8.96,1111122 
DISL,ioos:station:DISL:DISL:1,2008-03-02T03:00:00Z,30.2513,-88.0778,6.207,8.57,1111122 
DISL,ioos:station:DISL:DISL:1,2008-03-02T03:30:00Z,30.2513,-88.0778,6.053,8.56,1111122 
DISL,ioos:station:DISL:DISL:1,2008-03-02T04:00:00Z,30.2513,-88.0778,5.952,8.53,1111122 
DISL,ioos:station:DISL:DISL:1,2008-03-02T04:30:00Z,30.2513,-88.0778,5.918,8.5,1111122 
DISL,ioos:station:DISL:DISL:1,2008-03-02T05:00:00Z,30.2513,-88.0778,5.848,8.48,1111122 
DISL,ioos:station:DISL:DISL:1,2008-03-02T05:30:00Z,30.2513,-88.0778,5.731,8.57,1111122 
DISL,ioos:station:DISL:DISL:1,2008-03-02T06:00:00Z,30.2513,-88.0778,5.665,8.86,1111122 
DISL,ioos:station:DISL:DISL:1,2008-03-02T06:30:00Z,30.2513,-88.0778,5.564,9.05,1111122 
DISL,ioos:station:DISL:DISL:1,2008-03-02T07:00:00Z,30.2513,-88.0778,5.473,9.14,1111122 
DISL,ioos:station:DISL:DISL:1,2008-03-02T07:30:00Z,30.2513,-88.0778,5.375,9.16,1111122 
DISL,ioos:station:DISL:DISL:1,2008-03-02T08:00:00Z,30.2513,-88.0778,5.29,9.04,1111122 
DISL,ioos:station:DISL:DISL:1,2008-03-02T08:30:00Z,30.2513,-88.0778,5.229,9.04,1111122 
DISL,ioos:station:DISL:DISL:1,2008-03-02T09:00:00Z,30.2513,-88.0778,5.164,8.98,1111122 
DISL,ioos:station:DISL:DISL:1,2008-03-02T09:30:00Z,30.2513,-88.0778,5.11,9.07,1111122 
DISL,ioos:station:DISL:DISL:1,2008-03-02T10:00:00Z,30.2513,-88.0778,5.049,9.08,1111122 
DISL,ioos:station:DISL:DISL:1,2008-03-02T10:30:00Z,30.2513,-88.0778,5.043,9.16,1111122 
DISL,ioos:station:DISL:DISL:1,2008-03-02T11:00:00Z,30.2513,-88.0778,4.953,9.18,1111122 
DISL,ioos:station:DISL:DISL:1,2008-03-02T11:30:00Z,30.2513,-88.0778,5.038,9.19,1111122 
DISL,ioos:station:DISL:DISL:1,2008-03-02T12:00:00Z,30.2513,-88.0778,5.055,9.14,1111122 
DISL,ioos:station:DISL:DISL:1,2008-03-02T12:30:00Z,30.2513,-88.0778,5.084,9.08,1111122 
DISL,ioos:station:DISL:DISL:1,2008-03-02T13:00:00Z,30.2513,-88.0778,5.12,9.0,1111122 
DISL,ioos:station:DISL:DISL:1,2008-03-02T13:30:00Z,30.2513,-88.0778,5.154,8.95,1111122 
DISL,ioos:station:DISL:DISL:1,2008-03-02T14:00:00Z,30.2513,-88.0778,5.167,8.59,1111122 
DISL,ioos:station:DISL:DISL:1,2008-03-02T14:30:00Z,30.2513,-88.0778,5.247,8.13,1111122 
DISL,ioos:station:DISL:DISL:1,2008-03-02T15:00:00Z,30.2513,-88.0778,5.298,8.3,1111122 
DISL,ioos:station:DISL:DISL:1,2008-03-02T15:30:00Z,30.2513,-88.0778,5.341,8.44,1111122 
DISL,ioos:station:DISL:DISL:1,2008-03-02T16:00:00Z,30.2513,-88.0778,5.422,8.56,1111122 
DISL,ioos:station:DISL:DISL:1,2008-03-02T16:30:00Z,30.2513,-88.0778,5.488,8.51,1111122 
DISL,ioos:station:DISL:DISL:1,2008-03-02T17:00:00Z,30.2513,-88.0778,5.574,8.5,1111122 
DISL,ioos:station:DISL:DISL:1,2008-03-02T17:30:00Z,30.2513,-88.0778,5.685,8.76,1111122 
DISL,ioos:station:DISL:DISL:1,2008-03-02T18:00:00Z,30.2513,-88.0778,5.666,8.22,1111122 
DISL,ioos:station:DISL:DISL:1,2008-03-02T18:30:00Z,30.2513,-88.0778,5.847,8.05,1111122 
DISL,ioos:station:DISL:DISL:1,2008-03-02T19:00:00Z,30.2513,-88.0778,5.915,8.0,1111122 
DISL,ioos:station:DISL:DISL:1,2008-03-02T19:30:00Z,30.2513,-88.0778,5.988,7.95,1111122 
DISL,ioos:station:DISL:DISL:1,2008-03-02T20:00:00Z,30.2513,-88.0778,6.125,7.84,1111122 
DISL,ioos:station:DISL:DISL:1,2008-03-02T20:30:00Z,30.2513,-88.0778,6.155,7.68,1111122 
DISL,ioos:station:DISL:DISL:1,2008-03-02T21:00:00Z,30.2513,-88.0778,6.214,7.68,1111122 
DISL,ioos:station:DISL:DISL:1,2008-03-02T21:30:00Z,30.2513,-88.0778,6.32,7.67,1111122 
DISL,ioos:station:DISL:DISL:1,2008-03-02T22:00:00Z,30.2513,-88.0778,6.391,7.75,1111122 
DISL,ioos:station:DISL:DISL:1,2008-03-02T22:30:00Z,30.2513,-88.0778,6.544,7.76,1111122 
DISL,ioos:station:DISL:DISL:1,2008-03-02T23:00:00Z,30.2513,-88.0778,6.593,7.8,1111122 
DISL,ioos:station:DISL:DISL:1,2008-03-02T23:30:00Z,30.2513,-88.0778,6.612,7.78,1111122 
DISL,ioos:station:DISL:DISL:1,2008-03-03T00:00:00Z,30.2513,-88.0778,6.654,7.68,1111122 
DISL,ioos:station:DISL:DISL:1,2008-03-03T00:30:00Z,30.2513,-88.0778,6.677,7.73,1111122 
DISL,ioos:station:DISL:DISL:1,2008-03-03T01:00:00Z,30.2513,-88.0778,6.742,7.72,1111122 
DISL,ioos:station:DISL:DISL:1,2008-03-03T01:30:00Z,30.2513,-88.0778,6.715,7.83,1111122 
DISL,ioos:station:DISL:DISL:1,2008-03-03T02:00:00Z,30.2513,-88.0778,6.709,7.82,1111122 
DISL,ioos:station:DISL:DISL:1,2008-03-03T02:30:00Z,30.2513,-88.0778,6.65,7.82,1111122 
DISL,ioos:station:DISL:DISL:1,2008-03-03T03:00:00Z,30.2513,-88.0778,6.666,8.26,1111122 
DISL,ioos:station:DISL:DISL:1,2008-03-03T03:30:00Z,30.2513,-88.0778,6.597,8.74,1111122 
DISL,ioos:station:DISL:DISL:1,2008-03-03T04:00:00Z,30.2513,-88.0778,6.514,8.64,1111122 
DISL,ioos:station:DISL:DISL:1,2008-03-03T04:30:00Z,30.2513,-88.0778,6.474,8.69,1111122 
DISL,ioos:station:DISL:DISL:1,2008-03-03T05:00:00Z,30.2513,-88.0778,6.371,8.56,1111122 
DISL,ioos:station:DISL:DISL:1,2008-03-03T05:30:00Z,30.2513,-88.0778,6.242,7.96,1111122 
DISL,ioos:station:DISL:DISL:1,2008-03-03T06:00:00Z,30.2513,-88.0778,6.119,8.02,1111122 
DISL,ioos:station:DISL:DISL:1,2008-03-03T06:30:00Z,30.2513,-88.0778,6.078,8.03,1111122 
DISL,ioos:station:DISL:DISL:1,2008-03-03T07:00:00Z,30.2513,-88.0778,6.08,8.13,1111122 
DISL,ioos:station:DISL:DISL:1,2008-03-03T07:30:00Z,30.2513,-88.0778,6.013,8.21,1111122 
DISL,ioos:station:DISL:DISL:1,2008-03-03T08:00:00Z,30.2513,-88.0778,5.974,8.18,1111122 
DISL,ioos:station:DISL:DISL:1,2008-03-03T08:30:00Z,30.2513,-88.0778,5.871,8.27,1111122 
DISL,ioos:station:DISL:DISL:1,2008-03-03T09:00:00Z,30.2513,-88.0778,5.783,8.39,1111122 
DISL,ioos:station:DISL:DISL:1,2008-03-03T09:30:00Z,30.2513,-88.0778,5.7,8.41,1111122 
DISL,ioos:station:DISL:DISL:1,2008-03-03T10:00:00Z,30.2513,-88.0778,5.697,8.46,1111122 
DISL,ioos:station:DISL:DISL:1,2008-03-03T10:30:00Z,30.2513,-88.0778,5.659,8.37,1111122 
DISL,ioos:station:DISL:DISL:1,2008-03-03T11:00:00Z,30.2513,-88.0778,5.595,8.34,1111122 
DISL,ioos:station:DISL:DISL:1,2008-03-03T11:30:00Z,30.2513,-88.0778,5.612,8.43,1111122 
DISL,ioos:station:DISL:DISL:1,2008-03-03T12:00:00Z,30.2513,-88.0778,5.609,8.45,1111122 
DISL,ioos:station:DISL:DISL:1,2008-03-03T12:30:00Z,30.2513,-88.0778,5.576,8.33,1111122 
DISL,ioos:station:DISL:DISL:1,2008-03-03T13:00:00Z,30.2513,-88.0778,5.643,8.29,1111122 
DISL,ioos:station:DISL:DISL:1,2008-03-03T13:30:00Z,30.2513,-88.0778,5.651,8.13,1111122 
DISL,ioos:station:DISL:DISL:1,2008-03-03T14:00:00Z,30.2513,-88.0778,5.662,8.09,1111122 
DISL,ioos:station:DISL:DISL:1,2008-03-03T14:30:00Z,30.2513,-88.0778,5.695,7.88,1111122 
DISL,ioos:station:DISL:DISL:1,2008-03-03T15:00:00Z,30.2513,-88.0778,5.765,8.01,1111122 
DISL,ioos:station:DISL:DISL:1,2008-03-03T15:30:00Z,30.2513,-88.0778,5.78,7.67,1111122 
DISL,ioos:station:DISL:DISL:1,2008-03-03T16:00:00Z,30.2513,-88.0778,5.87,7.85,1111122 
DISL,ioos:station:DISL:DISL:1,2008-03-03T16:30:00Z,30.2513,-88.0778,5.919,7.87,1111122 
DISL,ioos:station:DISL:DISL:1,2008-03-03T17:00:00Z,30.2513,-88.0778,6.016,8.08,1111122 
DISL,ioos:station:DISL:DISL:1,2008-03-03T17:30:00Z,30.2513,-88.0778,6.073,8.16,1111122 
DISL,ioos:station:DISL:DISL:1,2008-03-03T18:00:00Z,30.2513,-88.0778,6.138,7.77,1111122 
DISL,ioos:station:DISL:DISL:1,2008-03-03T18:30:00Z,30.2513,-88.0778,6.257,7.53,1111122 
DISL,ioos:station:DISL:DISL:1,2008-03-03T19:00:00Z,30.2513,-88.0778,6.298,7.84,1111122 
DISL,ioos:station:DISL:DISL:1,2008-03-03T19:30:00Z,30.2513,-88.0778,6.293,7.88,1111122 
DISL,ioos:station:DISL:DISL:1,2008-03-03T20:00:00Z,30.2513,-88.0778,6.501,8.04,1111122 
DISL,ioos:station:DISL:DISL:1,2008-03-03T20:30:00Z,30.2513,-88.0778,6.53,8.07,1111122 
DISL,ioos:station:DISL:DISL:1,2008-03-03T21:00:00Z,30.2513,-88.0778,6.745,8.07,1111122 
DISL,ioos:station:DISL:DISL:1,2008-03-03T21:30:00Z,30.2513,-88.0778,6.803,8.06,1111122 
DISL,ioos:station:DISL:DISL:1,2008-03-03T22:00:00Z,30.2513,-88.0778,6.909,8.05,1111122 
DISL,ioos:station:DISL:DISL:1,2008-03-03T22:30:00Z,30.2513,-88.0778,7.01,8.08,1111122 
DISL,ioos:station:DISL:DISL:1,2008-03-03T23:00:00Z,30.2513,-88.0778,7.01,8.0,1111122 
DISL,ioos:station:DISL:DISL:1,2008-03-03T23:30:00Z,30.2513,-88.0778,7.1,8.01,1111122 
DISL,ioos:station:DISL:DISL:1,2008-03-04T00:00:00Z,30.2513,-88.0778,7.18,7.95,1111122 
DISL,ioos:station:DISL:DISL:1,2008-03-04T00:30:00Z,30.2513,-88.0778,7.21,7.85,1111122 
DISL,ioos:station:DISL:DISL:1,2008-03-04T01:00:00Z,30.2513,-88.0778,7.33,7.81,1111122 
DISL,ioos:station:DISL:DISL:1,2008-03-04T01:30:00Z,30.2513,-88.0778,7.43,7.81,1111122 
DISL,ioos:station:DISL:DISL:1,2008-03-04T02:00:00Z,30.2513,-88.0778,7.44,7.67,1111122 
DISL,ioos:station:DISL:DISL:1,2008-03-04T02:30:00Z,30.2513,-88.0778,7.4,7.73,1111122 
DISL,ioos:station:DISL:DISL:1,2008-03-04T03:00:00Z,30.2513,-88.0778,7.42,7.67,1111122 
DISL,ioos:station:DISL:DISL:1,2008-03-04T03:30:00Z,30.2513,-88.0778,7.37,7.64,1111122 
DISL,ioos:station:DISL:DISL:1,2008-03-04T04:00:00Z,30.2513,-88.0778,7.35,7.54,1111122 
DISL,ioos:station:DISL:DISL:1,2008-03-04T04:30:00Z,30.2513,-88.0778,7.29,7.53,1111122 
DISL,ioos:station:DISL:DISL:1,2008-03-04T05:00:00Z,30.2513,-88.0778,7.25,7.54,1111122 
DISL,ioos:station:DISL:DISL:1,2008-03-04T05:30:00Z,30.2513,-88.0778,7.16,7.49,1111122 
DISL,ioos:station:DISL:DISL:1,2008-03-04T06:00:00Z,30.2513,-88.0778,7.25,7.39,1111122 
DISL,ioos:station:DISL:DISL:1,2008-03-04T06:30:00Z,30.2513,-88.0778,7.15,7.36,1111122 
DISL,ioos:station:DISL:DISL:1,2008-03-04T07:00:00Z,30.2513,-88.0778,7.06,7.26,1111122 
DISL,ioos:station:DISL:DISL:1,2008-03-04T07:30:00Z,30.2513,-88.0778,7.08,7.37,1111122 
DISL,ioos:station:DISL:DISL:1,2008-03-04T08:00:00Z,30.2513,-88.0778,7.01,7.28,1111122 
DISL,ioos:station:DISL:DISL:1,2008-03-04T08:30:00Z,30.2513,-88.0778,6.866,7.21,1111122 
DISL,ioos:station:DISL:DISL:1,2008-03-04T09:00:00Z,30.2513,-88.0778,6.828,7.11,1111122 
DISL,ioos:station:DISL:DISL:1,2008-03-04T09:30:00Z,30.2513,-88.0778,6.734,7.07,1111122 
DISL,ioos:station:DISL:DISL:1,2008-03-04T10:00:00Z,30.2513,-88.0778,6.705,7.09,1111122 
DISL,ioos:station:DISL:DISL:1,2008-03-04T10:30:00Z,30.2513,-88.0778,6.547,7.11,1111122 
DISL,ioos:station:DISL:DISL:1,2008-03-04T11:00:00Z,30.2513,-88.0778,6.571,7.07,1111122 
DISL,ioos:station:DISL:DISL:1,2008-03-04T11:30:00Z,30.2513,-88.0778,6.473,7.1,1111122 
DISL,ioos:station:DISL:DISL:1,2008-03-04T12:00:00Z,30.2513,-88.0778,6.485,7.11,1111122 
DISL,ioos:station:DISL:DISL:1,2008-03-04T12:30:00Z,30.2513,-88.0778,6.392,6.89,1111122 
DISL,ioos:station:DISL:DISL:1,2008-03-04T13:00:00Z,30.2513,-88.0778,6.271,6.81,1111122 
DISL,ioos:station:DISL:DISL:1,2008-03-04T13:30:00Z,30.2513,-88.0778,6.333,6.85,1111122 
DISL,ioos:station:DISL:DISL:1,2008-03-04T14:00:00Z,30.2513,-88.0778,6.276,6.98,1111122 
DISL,ioos:station:DISL:DISL:1,2008-03-04T14:30:00Z,30.2513,-88.0778,6.147,6.78,1111122 
DISL,ioos:station:DISL:DISL:1,2008-03-04T15:00:00Z,30.2513,-88.0778,6.268,6.9,1111122 
DISL,ioos:station:DISL:DISL:1,2008-03-04T15:30:00Z,30.2513,-88.0778,6.112,7.01,1111122 
DISL,ioos:station:DISL:DISL:1,2008-03-04T16:00:00Z,30.2513,-88.0778,6.151,7.0,1111122 
DISL,ioos:station:DISL:DISL:1,2008-03-04T16:30:00Z,30.2513,-88.0778,6.183,7.06,1111122 
DISL,ioos:station:DISL:DISL:1,2008-03-04T17:00:00Z,30.2513,-88.0778,6.167,7.17,1111122 
DISL,ioos:station:DISL:DISL:1,2008-03-04T17:30:00Z,30.2513,-88.0778,6.278,7.32,1111122 
DISL,ioos:station:DISL:DISL:1,2008-03-04T18:00:00Z,30.2513,-88.0778,6.247,7.43,1111122 
DISL,ioos:station:DISL:DISL:1,2008-03-04T18:30:00Z,30.2513,-88.0778,6.369,7.25,1111122 
DISL,ioos:station:DISL:DISL:1,2008-03-04T19:00:00Z,30.2513,-88.0778,6.239,7.51,1111122 
DISL,ioos:station:DISL:DISL:1,2008-03-04T19:30:00Z,30.2513,-88.0778,6.305,7.52,1111122 
DISL,ioos:station:DISL:DISL:1,2008-03-04T20:00:00Z,30.2513,-88.0778,6.36,7.52,1111122 
DISL,ioos:station:DISL:DISL:1,2008-03-04T20:30:00Z,30.2513,-88.0778,6.406,7.53,1111122 
DISL,ioos:station:DISL:DISL:1,2008-03-04T21:00:00Z,30.2513,-88.0778,6.396,7.57,1111122 
DISL,ioos:station:DISL:DISL:1,2008-03-04T21:30:00Z,30.2513,-88.0778,6.703,7.62,1111122 
DISL,ioos:station:DISL:DISL:1,2008-03-04T22:00:00Z,30.2513,-88.0778,6.742,7.69,1111122 
DISL,ioos:station:DISL:DISL:1,2008-03-04T22:30:00Z,30.2513,-88.0778,6.732,7.68,1111122 
DISL,ioos:station:DISL:DISL:1,2008-03-04T23:00:00Z,30.2513,-88.0778,6.768,7.64,1111122 
DISL,ioos:station:DISL:DISL:1,2008-03-04T23:30:00Z,30.2513,-88.0778,6.754,7.73,1111122 
DISL,ioos:station:DISL:DISL:1,2008-03-05T00:00:00Z,30.2513,-88.0778,6.875,7.75,1111122 
DISL,ioos:station:DISL:DISL:1,2008-03-05T00:30:00Z,30.2513,-88.0778,6.901,7.71,1111122 
DISL,ioos:station:DISL:DISL:1,2008-03-05T01:00:00Z,30.2513,-88.0778,6.905,7.62,1111122 
DISL,ioos:station:DISL:DISL:1,2008-03-05T01:30:00Z,30.2513,-88.0778,6.792,7.55,1111122 
DISL,ioos:station:DISL:DISL:1,2008-03-05T02:00:00Z,30.2513,-88.0778,7.1,7.5,1111122 
DISL,ioos:station:DISL:DISL:1,2008-03-05T02:30:00Z,30.2513,-88.0778,6.771,7.46,1111122 
DISL,ioos:station:DISL:DISL:1,2008-03-05T03:00:00Z,30.2513,-88.0778,6.865,7.4,1111122 
DISL,ioos:station:DISL:DISL:1,2008-03-05T03:30:00Z,30.2513,-88.0778,6.687,7.36,1111122 
DISL,ioos:station:DISL:DISL:1,2008-03-05T04:00:00Z,30.2513,-88.0778,6.641,7.73,1111122 
DISL,ioos:station:DISL:DISL:1,2008-03-05T04:30:00Z,30.2513,-88.0778,6.512,7.3,1111122 
DISL,ioos:station:DISL:DISL:1,2008-03-05T05:00:00Z,30.2513,-88.0778,6.426,7.28,1111122 
DISL,ioos:station:DISL:DISL:1,2008-03-05T05:30:00Z,30.2513,-88.0778,6.396,7.29,1111122 
DISL,ioos:station:DISL:DISL:1,2008-03-05T06:00:00Z,30.2513,-88.0778,6.302,7.27,1111122 
DISL,ioos:station:DISL:DISL:1,2008-03-05T06:30:00Z,30.2513,-88.0778,6.266,7.23,1111122 
DISL,ioos:station:DISL:DISL:1,2008-03-05T07:00:00Z,30.2513,-88.0778,6.138,7.16,1111122 
DISL,ioos:station:DISL:DISL:1,2008-03-05T07:30:00Z,30.2513,-88.0778,6.066,7.25,1111122 
DISL,ioos:station:DISL:DISL:1,2008-03-05T08:00:00Z,30.2513,-88.0778,5.939,7.6,1111122 
DISL,ioos:station:DISL:DISL:1,2008-03-05T08:30:00Z,30.2513,-88.0778,5.937,7.97,1111122 
DISL,ioos:station:DISL:DISL:1,2008-03-05T09:00:00Z,30.2513,-88.0778,5.809,8.1,1111122 
DISL,ioos:station:DISL:DISL:1,2008-03-05T09:30:00Z,30.2513,-88.0778,5.821,8.22,1111122 
DISL,ioos:station:DISL:DISL:1,2008-03-05T10:00:00Z,30.2513,-88.0778,5.767,8.27,1111122 
DISL,ioos:station:DISL:DISL:1,2008-03-05T10:30:00Z,30.2513,-88.0778,5.734,8.31,1111122 
DISL,ioos:station:DISL:DISL:1,2008-03-05T11:00:00Z,30.2513,-88.0778,5.691,8.37,1111122 
DISL,ioos:station:DISL:DISL:1,2008-03-05T11:30:00Z,30.2513,-88.0778,5.644,8.33,1111122 
DISL,ioos:station:DISL:DISL:1,2008-03-05T12:00:00Z,30.2513,-88.0778,5.614,8.37,1111122 
DISL,ioos:station:DISL:DISL:1,2008-03-05T12:30:00Z,30.2513,-88.0778,5.623,8.36,1111122 
DISL,ioos:station:DISL:DISL:1,2008-03-05T13:00:00Z,30.2513,-88.0778,5.619,8.35,1111122 
DISL,ioos:station:DISL:DISL:1,2008-03-05T13:30:00Z,30.2513,-88.0778,5.65,8.4,1111122 
DISL,ioos:station:DISL:DISL:1,2008-03-05T14:00:00Z,30.2513,-88.0778,5.658,8.44,1111122 
DISL,ioos:station:DISL:DISL:1,2008-03-05T14:30:00Z,30.2513,-88.0778,5.655,8.55,1111122 
DISL,ioos:station:DISL:DISL:1,2008-03-05T15:00:00Z,30.2513,-88.0778,5.735,8.58,1111122 
DISL,ioos:station:DISL:DISL:1,2008-03-05T15:30:00Z,30.2513,-88.0778,5.797,8.59,1111122 
DISL,ioos:station:DISL:DISL:1,2008-03-05T16:00:00Z,30.2513,-88.0778,5.774,7.57,1111122 
DISL,ioos:station:DISL:DISL:1,2008-03-05T16:30:00Z,30.2513,-88.0778,5.847,7.63,1111122 
DISL,ioos:station:DISL:DISL:1,2008-03-05T17:00:00Z,30.2513,-88.0778,5.895,7.47,1111122 
DISL,ioos:station:DISL:DISL:1,2008-03-05T17:30:00Z,30.2513,-88.0778,5.911,7.63,1111122 
DISL,ioos:station:DISL:DISL:1,2008-03-05T18:00:00Z,30.2513,-88.0778,5.942,7.83,1111122 
DISL,ioos:station:DISL:DISL:1,2008-03-05T18:30:00Z,30.2513,-88.0778,6.047,8.04,1111122 
DISL,ioos:station:DISL:DISL:1,2008-03-05T19:00:00Z,30.2513,-88.0778,6.104,8.42,1111122 
DISL,ioos:station:DISL:DISL:1,2008-03-05T19:30:00Z,30.2513,-88.0778,6.182,8.55,1111122 
DISL,ioos:station:DISL:DISL:1,2008-03-05T20:00:00Z,30.2513,-88.0778,6.213,8.56,1111122 
DISL,ioos:station:DISL:DISL:1,2008-03-05T20:30:00Z,30.2513,-88.0778,6.283,8.55,1111122 
DISL,ioos:station:DISL:DISL:1,2008-03-05T21:00:00Z,30.2513,-88.0778,6.336,7.55,1111122 
DISL,ioos:station:DISL:DISL:1,2008-03-05T21:30:00Z,30.2513,-88.0778,6.355,7.13,1111122 
DISL,ioos:station:DISL:DISL:1,2008-03-05T22:00:00Z,30.2513,-88.0778,6.367,7.07,1111122 
DISL,ioos:station:DISL:DISL:1,2008-03-05T22:30:00Z,30.2513,-88.0778,6.48,7.4,1111122 
DISL,ioos:station:DISL:DISL:1,2008-03-05T23:00:00Z,30.2513,-88.0778,6.554,7.67,1111122 
DISL,ioos:station:DISL:DISL:1,2008-03-05T23:30:00Z,30.2513,-88.0778,6.686,8.04,1111122 
DISL,ioos:station:DISL:DISL:1,2008-03-06T00:00:00Z,30.2513,-88.0778,6.708,7.83,1111122 
DISL,ioos:station:DISL:DISL:1,2008-03-06T00:30:00Z,30.2513,-88.0778,6.716,8.31,1111122 
DISL,ioos:station:DISL:DISL:1,2008-03-06T01:00:00Z,30.2513,-88.0778,6.808,8.16,1111122 
DISL,ioos:station:DISL:DISL:1,2008-03-06T01:30:00Z,30.2513,-88.0778,6.818,8.8,1111122 
DISL,ioos:station:DISL:DISL:1,2008-03-06T02:00:00Z,30.2513,-88.0778,6.807,8.75,1111122 
DISL,ioos:station:DISL:DISL:1,2008-03-06T02:30:00Z,30.2513,-88.0778,6.868,8.66,1111122 
DISL,ioos:station:DISL:DISL:1,2008-03-06T03:00:00Z,30.2513,-88.0778,6.823,8.8,1111122 
DISL,ioos:station:DISL:DISL:1,2008-03-06T03:30:00Z,30.2513,-88.0778,6.821,8.87,1111122 
DISL,ioos:station:DISL:DISL:1,2008-03-06T04:00:00Z,30.2513,-88.0778,6.738,8.65,1111122 
DISL,ioos:station:DISL:DISL:1,2008-03-06T04:30:00Z,30.2513,-88.0778,6.711,8.65,1111122 
DISL,ioos:station:DISL:DISL:1,2008-03-06T05:00:00Z,30.2513,-88.0778,6.666,8.57,1111122 
DISL,ioos:station:DISL:DISL:1,2008-03-06T05:30:00Z,30.2513,-88.0778,6.509,8.65,1111122 
DISL,ioos:station:DISL:DISL:1,2008-03-06T06:00:00Z,30.2513,-88.0778,6.463,8.56,1111122 
DISL,ioos:station:DISL:DISL:1,2008-03-06T06:30:00Z,30.2513,-88.0778,6.364,8.44,1111122 
DISL,ioos:station:DISL:DISL:1,2008-03-06T07:00:00Z,30.2513,-88.0778,6.273,8.44,1111122 
DISL,ioos:station:DISL:DISL:1,2008-03-06T07:30:00Z,30.2513,-88.0778,6.225,7.99,1111122 
DISL,ioos:station:DISL:DISL:1,2008-03-06T08:00:00Z,30.2513,-88.0778,6.111,8.16,1111122 
DISL,ioos:station:DISL:DISL:1,2008-03-06T08:30:00Z,30.2513,-88.0778,6.028,8.67,1111122 
DISL,ioos:station:DISL:DISL:1,2008-03-06T09:00:00Z,30.2513,-88.0778,5.955,8.89,1111122 
DISL,ioos:station:DISL:DISL:1,2008-03-06T09:30:00Z,30.2513,-88.0778,5.903,8.83,1111122 
DISL,ioos:station:DISL:DISL:1,2008-03-06T10:00:00Z,30.2513,-88.0778,5.808,8.9,1111122 
DISL,ioos:station:DISL:DISL:1,2008-03-06T10:30:00Z,30.2513,-88.0778,5.702,8.91,1111122 
DISL,ioos:station:DISL:DISL:1,2008-03-06T11:00:00Z,30.2513,-88.0778,5.678,8.95,1111122 
DISL,ioos:station:DISL:DISL:1,2008-03-06T11:30:00Z,30.2513,-88.0778,5.601,8.93,1111122 
DISL,ioos:station:DISL:DISL:1,2008-03-06T12:00:00Z,30.2513,-88.0778,5.595,8.89,1111122 
DISL,ioos:station:DISL:DISL:1,2008-03-06T12:30:00Z,30.2513,-88.0778,5.579,8.92,1111122 
DISL,ioos:station:DISL:DISL:1,2008-03-06T13:00:00Z,30.2513,-88.0778,5.566,8.92,1111122 
DISL,ioos:station:DISL:DISL:1,2008-03-06T13:30:00Z,30.2513,-88.0778,5.574,8.93,1111122 
DISL,ioos:station:DISL:DISL:1,2008-03-06T14:00:00Z,30.2513,-88.0778,5.637,8.97,1111122 
DISL,ioos:station:DISL:DISL:1,2008-03-06T14:30:00Z,30.2513,-88.0778,5.644,9.0,1111122 
DISL,ioos:station:DISL:DISL:1,2008-03-06T15:00:00Z,30.2513,-88.0778,5.655,8.99,1111122 
DISL,ioos:station:DISL:DISL:1,2008-03-06T15:30:00Z,30.2513,-88.0778,5.74,9.01,1111122 